Wetbulb
71.48 75.04 73.63 74.39 74.76 74.44 73.61 73.40 73.32 72.96 73.23 73.49 73.58 73.43 73.56 73.54 73.32 73.12 73.34 73.92 73.50 73.80 73.07 73.35 73.10 73.05 72.54 72.02 72.53 71.91 71.42 71.40 71.86 72.35 72.28 72.19 71.84 71.45 71.10 71.13 70.89 69.86 70.44
73.18 75.04 73.01 73.90 74.51 74.50 73.65 73.35 73.31 73.04 73.24 73.50 73.31 73.28 73.43 73.50 73.32 73.39 73.83 73.67 73.82 73.65 72.83 73.27 73.90 73.50 72.25 72.24 71.57 71.22 72.04 71.83 71.55 71.83 72.11 71.63 71.25 71.02 70.43 70.71 70.35 70.27 69.51
73.66 74.71 74.08 73.47 74.05 74.36 74.16 73.66 73.55 73.43 73.47 73.36 73.16 73.23 73.42 73.23 73.00 72.82 72.99 73.10 72.90 73.13 73.65 73.12 73.29 72.42 71.59 71.41 71.55 71.83 71.63 71.29 71.38 71.59 71.97 70.73 70.50 70.51 70.12 69.70 69.77 68.85 68.00
73.88 74.63 74.31 73.13 73.64 74.00 74.13 73.80 73.59 73.74 73.70 73.25 73.20 72.94 73.13 73.11 73.14 72.87 72.97 72.23 72.83 73.25 73.35 73.21 73.00 71.35 71.81 71.95 71.41 71.27 71.04 70.81 70.76 70.98 70.77 69.73 69.85 70.12 69.90 69.14 68.41 67.68 67.01
73.34 74.13 74.55 72.77 73.06 73.55 73.69 73.80 73.64 73.50 73.45 73.06 72.72 72.91 73.04 73.31 73.39 73.19 72.59 72.60 73.40 73.67 73.57 73.05 71.65 71.76 71.73 70.48 70.10 69.82 69.78 69.84 69.82 70.18 68.95 69.78 70.14 69.32 69.07 68.10 67.29 66.60 66.92
73.09 73.77 72.85 72.03 72.61 73.23 73.61 73.84 73.67 73.24 72.79 72.56 72.48 72.60 73.02 73.41 73.65 72.94 72.34 72.77 73.40 73.38 73.55 72.83 71.98 71.64 70.41 69.76 69.30 69.15 68.74 68.99 69.02 69.06 70.25 69.48 68.64 68.51 67.63 66.76 66.11 65.61 64.91
71.69 73.18 73.96 71.63 72.41 72.95 73.21 73.15 73.27 72.89 72.17 72.16 72.35 72.05 72.51 72.83 72.83 71.80 72.02 72.49 72.45 72.78 72.47 72.00 71.54 70.48 69.72 69.28 68.85 68.11 67.90 68.02 68.32 69.01 69.30 68.99 68.85 67.39 66.61 65.87 65.20 64.53 64.05
69.69 71.98 72.36 72.24 72.19 72.11 71.55 71.16 71.26 71.70 71.86 71.49 71.62 71.55 71.99 71.79 70.88 70.67 70.41 71.18 71.44 71.64 71.36 70.81 70.29 69.79 69.30 68.87 67.89 67.27 66.66 67.39 68.36 68.86 67.60 68.02 67.15 66.74 66.35 65.39 64.46 63.55 63.37
58.51 66.93 70.78 72.23 72.39 71.75 71.64 71.61 71.39 71.14 70.47 69.81 70.44 70.28 70.61 70.23 69.97 70.72 70.37 70.50 70.75 70.90 70.47 70.23 69.65 69.18 68.82 67.99 67.09 66.35 66.26 67.07 68.64 68.17 66.14 65.99 66.14 66.04 65.37 64.60 64.03 63.12 63.15
55.63 56.55 57.65 66.51 70.70 72.55 72.56 71.03 71.08 71.11 70.65 69.06 69.70 69.37 68.62 69.46 69.29 69.91 69.47 70.14 70.10 70.62 70.12 69.88 69.19 68.79 67.89 66.80 66.09 65.72 65.88 66.14 68.25 67.53 67.27 65.83 65.55 64.77 64.79 64.22 63.65 62.77 63.11
53.77 53.86 54.31 58.94 59.54 66.99 70.99 72.26 71.38 71.26 71.11 69.31 69.56 69.19 68.83 71.15 70.11 68.63 68.66 68.79 69.66 69.29 69.31 69.15 68.53 67.42 66.54 66.18 65.89 65.56 65.65 68.34 67.98 67.31 66.90 64.54 64.67 64.81 64.17 63.53 62.34 62.79 62.45
51.32 53.03 52.58 54.97 57.84 60.61 68.34 71.56 72.37 72.83 73.16 73.21 72.22 72.45 72.43 70.98 68.92 67.06 68.54 68.46 68.82 68.52 68.67 68.27 67.53 66.46 66.83 67.85 67.02 65.43 68.36 68.19 67.85 67.31 65.74 64.74 64.28 64.06 64.18 63.06 62.61 62.04 62.62
51.63 52.83 52.40 53.60 56.40 57.12 58.59 68.60 69.86 72.42 73.00 73.02 72.37 72.53 71.52 69.28 67.15 66.57 67.08 68.37 68.82 69.55 69.87 69.09 68.36 68.36 68.91 68.50 67.38 67.76 68.25 67.84 67.64 66.95 64.30 64.28 64.17 63.78 63.62 63.23 62.89 62.47 62.13
50.66 51.71 53.34 54.42 55.91 56.93 57.21 62.33 69.43 70.41 72.23 72.55 72.39 71.99 71.71 69.34 67.15 65.95 65.96 67.74 67.98 70.90 70.07 68.83 68.37 68.46 68.35 68.73 68.29 68.04 68.02 67.70 67.52 66.34 63.69 63.36 63.85 63.13 63.01 62.77 62.78 62.21 61.65
50.20 51.71 52.88 55.18 56.56 56.77 57.43 59.43 66.77 68.82 69.62 71.84 72.01 71.37 72.17 69.67 66.86 66.00 66.52 66.99 67.26 70.61 69.87 68.35 68.32 67.87 67.66 67.75 68.03 67.95 67.48 67.24 67.08 66.01 64.29 62.92 63.12 63.70 62.43 63.49 62.30 61.99 61.77
49.52 50.70 52.67 53.58 56.08 57.84 58.52 60.03 62.91 70.04 70.43 70.19 71.70 71.01 70.58 70.15 66.81 66.21 67.13 67.17 67.08 68.88 70.70 68.43 67.62 67.20 67.18 67.46 67.30 67.58 67.11 66.94 66.52 65.71 63.72 62.76 62.10 62.73 63.31 62.56 62.56 62.11 61.50
48.88 50.29 51.70 52.76 55.15 55.81 58.34 60.27 63.59 66.66 69.56 69.50 70.26 71.17 70.41 69.66 67.53 66.50 66.40 66.34 66.56 67.26 67.86 69.74 68.70 66.86 66.09 65.83 65.98 66.85 66.81 66.57 66.05 64.49 63.27 62.92 61.67 60.89 61.98 62.76 61.95 61.31 61.13
48.29 48.69 50.95 52.24 53.30 54.37 55.53 56.74 61.13 62.58 68.36 68.90 69.08 69.65 70.14 68.67 68.12 66.41 66.36 65.07 66.43 66.68 66.66 66.71 66.97 65.63 64.26 64.94 65.50 65.31 66.17 66.21 65.69 64.48 63.62 62.89 62.49 62.25 60.86 61.30 61.72 61.72 60.82
47.73 48.32 49.27 51.34 51.92 52.68 54.42 55.81 59.56 62.88 67.91 68.27 68.99 68.56 68.71 67.80 67.53 66.23 65.48 65.31 65.76 64.91 65.60 65.08 64.93 64.70 64.62 64.56 65.35 64.98 65.36 65.39 64.96 63.78 63.00 62.85 62.98 62.67 62.24 60.45 60.63 60.69 61.17
47.20 47.93 48.62 49.87 50.86 51.35 52.98 54.27 55.59 57.96 60.57 66.73 68.12 68.12 68.00 67.69 66.84 66.10 65.08 64.47 65.13 64.72 64.49 64.61 63.14 63.19 62.64 62.55 62.84 62.62 64.18 64.44 64.74 63.21 62.82 62.32 62.20 62.47 62.45 61.56 61.26 60.55 59.91
45.92 46.10 47.25 48.12 49.22 49.33 50.26 48.74 49.21 53.48 52.67 56.85 67.04 68.02 68.09 68.13 67.36 66.37 65.08 64.42 64.47 64.24 63.48 64.52 63.23 61.74 61.27 61.76 61.38 59.68 60.40 63.32 62.56 63.17 63.42 62.52 61.62 61.93 62.14 61.70 61.49 61.13 60.00
44.34 45.18 45.94 47.01 48.14 47.79 48.83 48.24 48.31 49.36 53.73 57.20 59.33 67.77 67.88 67.58 68.01 66.46 65.03 63.94 63.65 63.14 63.04 63.42 63.29 61.11 60.91 61.36 59.47 57.04 54.41 56.23 59.64 61.72 63.31 62.83 63.05 62.16 61.40 61.74 61.47 60.42 60.74
43.03 43.85 44.54 45.83 46.48 46.73 47.05 48.35 47.74 50.03 52.14 55.75 56.93 63.69 67.68 67.99 67.29 67.02 66.01 63.68 63.40 62.88 62.15 62.94 63.06 61.36 59.09 59.96 60.28 58.87 54.49 53.99 57.56 60.20 61.83 62.67 63.02 62.26 61.34 61.95 61.82 61.63 61.39
42.34 44.22 44.65 45.22 45.55 45.54 45.98 46.37 44.43 44.90 45.71 50.00 51.37 55.05 59.11 67.83 67.08 66.93 65.70 64.55 63.63 63.76 62.52 62.35 62.77 62.35 60.86 58.39 59.84 62.13 61.48 60.64 58.52 55.97 59.77 61.29 62.37 62.49 62.94 62.37 62.20 62.52 62.47
42.11 42.74 44.05 44.71 45.40 45.58 44.62 44.95 44.52 43.65 46.02 48.53 50.39 52.41 57.68 66.75 66.94 66.43 66.06 64.85 63.58 63.92 63.18 62.52 61.80 61.62 61.92 59.96 59.22 59.95 60.94 62.04 63.04 61.43 57.75 58.29 60.16 62.54 62.74 63.27 63.32 62.92 62.76
41.62 42.21 42.87 43.45 44.11 45.23 44.84 44.04 44.00 43.32 43.95 45.60 47.14 48.70 52.74 59.05 65.64 65.40 65.01 63.78 63.76 62.72 63.73 63.30 63.26 61.94 61.42 61.05 60.80 60.34 59.53 59.08 58.79 61.40 61.00 60.47 59.65 61.33 63.29 63.48 63.00 63.58 63.64
MSLP
1006.96 1007.73 1009.43 1009.93 1010.17 1010.39 1010.62 1011.11 1011.33 1011.67 1012.07 1012.42 1012.83 1013.15 1013.42 1013.66 1014.00 1014.21 1014.28 1014.48 1014.67 1014.97 1015.56 1015.87 1016.21 1016.45 1016.59 1016.86 1016.84 1017.10 1017.49 1017.65 1017.86 1018.08 1018.21 1018.37 1018.64 1018.92 1019.06 1019.09 1018.96 1019.30 1019.87
1007.03 1008.21 1009.91 1010.37 1010.68 1010.81 1011.03 1011.23 1011.63 1011.94 1012.28 1012.63 1013.07 1013.35 1013.63 1013.88 1014.18 1014.44 1014.61 1014.80 1015.09 1015.37 1015.79 1016.14 1016.42 1016.57 1016.93 1016.88 1017.15 1017.72 1017.82 1018.02 1018.31 1018.43 1018.53 1018.73 1019.09 1019.30 1019.44 1019.43 1019.55 1020.06 1020.32
1007.60 1008.60 1009.95 1010.75 1011.08 1011.28 1011.48 1011.63 1011.89 1012.18 1012.63 1012.80 1013.25 1013.53 1013.81 1014.06 1014.31 1014.63 1014.83 1015.03 1015.34 1015.69 1015.89 1016.36 1016.64 1016.93 1017.08 1017.29 1017.88 1018.05 1018.12 1018.40 1018.62 1018.64 1018.42 1018.44 1019.30 1019.79 1019.95 1020.17 1020.39 1020.62 1020.82
1008.20 1008.65 1009.42 1010.88 1011.24 1011.55 1011.84 1011.99 1012.28 1012.33 1012.77 1013.12 1013.47 1013.75 1013.94 1014.27 1014.47 1014.84 1014.95 1015.26 1015.58 1015.91 1016.18 1016.50 1016.91 1017.31 1017.67 1017.92 1018.17 1018.33 1018.47 1018.71 1018.80 1018.48 1018.10 1018.95 1019.49 1020.18 1020.36 1020.59 1020.80 1021.04 1021.25
1009.15 1009.15 1009.96 1010.78 1011.10 1011.61 1011.96 1012.28 1012.62 1012.66 1012.85 1013.31 1013.65 1013.90 1014.15 1014.45 1014.56 1014.92 1015.06 1015.40 1015.64 1016.05 1016.26 1016.75 1017.28 1017.79 1018.08 1018.27 1018.39 1018.65 1018.78 1018.98 1018.86 1018.17 1018.18 1018.71 1019.50 1020.51 1020.71 1021.01 1021.24 1021.33 1021.39
1010.07 1010.24 1011.39 1011.86 1011.86 1011.96 1012.21 1012.44 1012.77 1012.97 1013.14 1013.39 1013.73 1014.02 1014.32 1014.55 1014.86 1015.02 1015.32 1015.66 1015.88 1016.23 1016.48 1016.97 1017.55 1017.99 1018.45 1018.57 1018.81 1018.96 1019.09 1019.07 1018.54 1018.11 1019.15 1020.06 1020.37 1020.97 1021.25 1021.46 1021.66 1021.87 1022.09
1010.90 1010.91 1011.58 1012.80 1012.75 1012.72 1012.70 1012.87 1012.96 1013.18 1013.38 1013.61 1013.82 1014.05 1014.34 1014.61 1014.96 1015.20 1015.55 1015.74 1015.97 1016.44 1016.87 1017.36 1017.90 1018.29 1018.68 1018.83 1019.10 1019.20 1019.26 1019.08 1018.14 1018.53 1019.43 1020.10 1020.81 1021.39 1021.65 1021.86 1022.12 1022.34 1022.58
1012.40 1011.69 1011.80 1012.81 1012.92 1013.03 1013.28 1013.26 1013.31 1013.36 1013.53 1013.73 1013.91 1014.10 1014.34 1014.69 1015.13 1015.53 1015.84 1016.06 1016.32 1016.79 1017.25 1017.84 1018.30 1018.53 1018.90 1019.15 1019.38 1019.53 1019.61 1019.25 1018.71 1019.19 1020.22 1020.61 1021.56 1021.75 1022.02 1022.36 1022.63 1022.86 1023.14
1014.51 1013.50 1012.82 1012.26 1012.64 1013.03 1013.04 1013.35 1013.51 1013.61 1013.71 1013.76 1014.00 1014.19 1014.45 1014.91 1015.34 1015.82 1016.36 1016.28 1016.50 1016.95 1017.57 1018.24 1018.59 1018.82 1019.18 1019.47 1019.65 1020.01 1019.96 1019.66 1019.01 1020.01 1020.99 1021.33 1021.93 1022.18 1022.49 1022.75 1023.03 1023.28 1023.59
1015.24 1015.80 1015.64 1014.28 1013.34 1012.46 1012.19 1013.06 1013.31 1013.47 1013.74 1013.89 1014.13 1014.30 1014.85 1015.00 1015.53 1016.30 1016.62 1016.74 1016.76 1017.25 1017.81 1018.57 1018.83 1019.08 1019.42 1019.73 1020.12 1020.45 1020.41 1019.95 1019.51 1020.22 1020.69 1021.70 1022.23 1022.46 1022.84 1023.14 1023.43 1023.66 1023.97
1016.15 1016.76 1016.64 1015.84 1015.21 1014.08 1013.18 1012.59 1013.16 1013.33 1013.45 1013.89 1014.08 1014.32 1014.81 1015.14 1015.73 1016.33 1016.88 1017.04 1016.96 1017.51 1018.10 1018.83 1019.17 1019.37 1019.70 1020.20 1020.54 1020.80 1020.53 1019.31 1019.66 1020.02 1020.52 1022.25 1022.41 1022.70 1023.08 1023.50 1023.79 1024.02 1024.33
1017.28 1017.12 1017.33 1016.78 1015.95 1014.96 1013.77 1013.12 1012.77 1012.64 1012.54 1013.03 1013.35 1013.94 1014.34 1015.16 1015.86 1016.21 1016.79 1017.23 1017.16 1017.53 1018.21 1018.99 1019.48 1019.73 1019.78 1019.99 1020.57 1020.93 1019.62 1019.71 1019.79 1020.07 1021.20 1022.41 1022.56 1022.85 1023.39 1023.84 1024.15 1024.32 1024.65
1018.11 1018.23 1017.84 1017.07 1016.34 1015.81 1015.12 1013.85 1013.19 1012.99 1012.98 1013.04 1013.09 1013.60 1014.31 1015.15 1016.10 1016.51 1016.87 1017.23 1017.37 1017.63 1018.09 1018.87 1019.58 1019.26 1018.73 1019.23 1019.93 1019.69 1019.76 1020.08 1019.89 1020.25 1022.08 1022.64 1022.78 1023.07 1023.54 1024.00 1024.35 1024.68 1024.94
1018.13 1018.01 1017.46 1016.99 1016.40 1016.09 1015.55 1014.67 1013.37 1012.87 1013.02 1013.21 1013.25 1013.44 1014.02 1014.92 1015.80 1016.54 1016.62 1016.91 1017.19 1017.32 1017.47 1018.08 1018.59 1018.61 1018.96 1018.98 1019.50 1019.62 1019.99 1019.78 1020.01 1020.59 1022.35 1022.87 1023.11 1023.30 1023.63 1024.07 1024.50 1024.85 1025.20
1018.17 1017.84 1017.62 1017.07 1016.51 1016.10 1015.63 1015.14 1013.93 1013.27 1013.12 1013.19 1013.34 1013.57 1013.86 1014.41 1015.41 1016.08 1016.26 1016.68 1016.71 1016.95 1017.09 1017.76 1018.25 1018.63 1019.19 1019.25 1019.68 1019.92 1020.12 1020.26 1020.56 1020.72 1021.98 1023.08 1023.33 1023.54 1023.82 1024.17 1024.61 1024.98 1025.32
1018.73 1018.26 1018.15 1017.58 1016.93 1016.26 1015.67 1015.14 1014.44 1013.17 1012.98 1013.26 1013.27 1013.42 1013.76 1014.11 1014.98 1015.63 1015.97 1016.33 1016.31 1016.64 1016.79 1017.30 1018.20 1018.84 1019.28 1019.36 1019.74 1020.11 1020.32 1020.51 1020.74 1021.08 1021.86 1023.03 1023.50 1023.68 1024.00 1024.27 1024.67 1025.04 1025.37
1019.53 1019.16 1018.49 1017.88 1017.25 1016.65 1015.76 1015.13 1014.29 1013.53 1013.07 1013.12 1013.25 1013.22 1013.49 1013.95 1014.61 1015.29 1015.22 1016.23 1016.59 1016.87 1017.09 1017.44 1018.30 1019.01 1019.52 1019.82 1019.87 1020.16 1020.35 1020.65 1020.95 1021.38 1021.78 1022.46 1023.42 1023.92 1024.17 1024.35 1024.76 1025.05 1025.33
1020.16 1019.72 1018.96 1018.38 1017.63 1017.00 1016.36 1015.73 1014.57 1013.80 1012.91 1012.96 1013.14 1013.32 1013.40 1013.84 1014.26 1014.89 1015.41 1015.91 1016.15 1016.50 1017.26 1017.86 1018.50 1019.10 1019.74 1019.66 1019.99 1020.07 1020.15 1020.52 1020.93 1021.40 1021.53 1022.01 1022.62 1023.16 1024.27 1024.51 1024.81 1025.10 1025.39
1020.48 1020.08 1019.25 1018.71 1018.11 1017.48 1016.70 1015.79 1014.71 1013.81 1012.72 1012.71 1012.85 1013.10 1013.36 1013.72 1013.97 1014.43 1014.95 1014.99 1016.12 1016.57 1017.13 1017.82 1018.54 1019.01 1019.34 1019.76 1019.83 1020.06 1020.05 1020.27 1020.92 1021.26 1021.59 1021.84 1022.19 1022.62 1023.26 1024.50 1024.89 1025.18 1025.45
1020.82 1020.43 1019.77 1019.03 1018.56 1017.94 1017.04 1016.10 1015.15 1014.34 1013.33 1012.75 1012.44 1012.73 1013.07 1013.36 1013.75 1014.04 1014.71 1014.94 1015.80 1016.37 1016.94 1017.66 1018.42 1019.14 1019.22 1019.67 1019.99 1020.45 1020.38 1020.38 1020.68 1021.12 1021.47 1021.80 1022.23 1022.48 1022.82 1023.80 1024.48 1024.82 1025.33
1021.38 1020.98 1020.31 1019.62 1019.19 1018.58 1017.64 1017.12 1016.31 1015.30 1014.61 1013.68 1012.43 1012.26 1012.63 1013.05 1013.48 1013.84 1014.14 1014.68 1015.19 1015.98 1016.62 1017.13 1018.09 1018.88 1019.34 1019.89 1020.42 1020.93 1021.40 1021.24 1021.17 1021.09 1021.15 1021.53 1022.10 1022.46 1022.72 1023.19 1023.51 1023.80 1024.92
1021.66 1021.31 1020.79 1020.30 1019.82 1019.41 1018.79 1018.23 1017.78 1016.73 1015.03 1014.12 1013.07 1011.83 1012.17 1012.52 1012.90 1013.44 1013.69 1014.36 1014.93 1015.55 1016.54 1016.76 1017.43 1017.86 1018.79 1019.38 1019.68 1020.69 1021.52 1022.12 1021.75 1021.21 1020.97 1021.29 1021.70 1021.98 1022.44 1022.87 1023.12 1023.48 1023.65
1022.02 1021.57 1021.15 1020.68 1020.24 1019.78 1019.32 1018.60 1017.90 1016.65 1015.62 1014.12 1013.46 1012.60 1011.83 1011.94 1012.40 1012.83 1013.34 1013.63 1014.16 1015.13 1015.76 1016.08 1016.66 1017.20 1017.85 1018.76 1019.01 1018.96 1020.22 1020.46 1020.90 1021.23 1021.12 1021.05 1021.45 1021.64 1021.88 1022.42 1022.92 1023.10 1023.28
1022.46 1022.01 1021.59 1021.09 1020.54 1020.15 1019.72 1019.02 1018.74 1017.97 1016.83 1015.82 1014.97 1013.80 1012.51 1011.35 1011.72 1012.17 1012.72 1013.05 1013.52 1013.47 1015.08 1015.34 1016.07 1016.61 1016.99 1017.61 1018.40 1018.30 1018.45 1018.76 1018.94 1020.32 1020.97 1020.80 1021.07 1021.27 1021.48 1021.62 1022.18 1022.60 1022.92
1022.94 1022.35 1021.89 1021.38 1020.78 1020.45 1020.11 1019.67 1019.11 1018.43 1017.57 1016.41 1015.35 1014.21 1012.69 1011.21 1011.23 1011.57 1012.01 1012.69 1013.10 1013.82 1014.19 1014.81 1015.30 1016.03 1016.42 1016.79 1017.20 1017.85 1018.16 1018.20 1017.88 1017.80 1018.97 1020.13 1020.75 1020.56 1020.75 1021.05 1021.10 1021.77 1022.24
1023.45 1022.79 1022.26 1021.66 1021.02 1020.63 1020.23 1019.90 1019.38 1018.80 1017.91 1016.78 1015.82 1014.94 1013.57 1012.32 1011.21 1011.32 1011.52 1012.16 1012.40 1013.24 1013.32 1014.35 1014.65 1015.21 1015.86 1016.13 1016.48 1017.08 1017.15 1017.44 1017.75 1017.48 1017.59 1018.62 1019.32 1019.58 1019.80 1020.15 1020.78 1020.83 1021.24
Wind_Speed
5 15 12 12 12 13 14 13 15 15 15 16 16 15 15 15 14 13 12 15 16 20 18 17 19 19 21 22 21 20 19 18 17 17 18 20 20 20 19 17 18 20 18
9 15 11 11 11 12 13 13 14 15 15 16 15 15 14 14 13 11 11 14 18 21 24 21 19 20 22 21 20 18 16 16 17 19 19 21 20 19 18 17 18 20 20
11 13 14 10 11 11 12 13 14 15 14 16 15 14 13 13 13 11 13 15 18 20 22 22 21 22 22 20 17 17 18 17 16 18 16 14 16 19 20 20 19 20 19
11 12 14 11 11 10 11 12 13 15 15 15 14 13 13 12 12 11 13 16 19 20 21 21 21 22 20 17 19 19 18 15 12 14 12 13 14 19 19 19 19 19 18
7 9 13 12 13 11 11 11 11 13 14 14 14 14 13 13 13 13 15 17 19 19 20 21 22 20 18 18 19 18 17 11 10 9 12 12 12 15 18 18 17 16 16
5 3 12 7 9 10 10 9 10 10 11 13 14 14 14 15 13 14 15 17 19 18 20 21 21 19 17 17 17 17 14 11 13 12 15 12 12 16 17 18 18 18 17
6 6 9 7 7 7 7 6 7 9 10 12 14 14 15 16 14 14 15 19 19 19 20 21 20 18 17 16 15 15 10 7 8 11 11 12 14 15 16 18 17 16 16
15 8 6 8 6 4 2 2 3 5 8 10 13 15 15 15 15 13 11 16 17 19 20 19 18 18 16 16 15 13 7 4 8 11 10 9 13 15 16 17 17 16 17
22 19 12 7 5 4 3 2 2 3 5 8 10 13 14 14 18 14 10 12 18 19 19 17 17 17 16 16 16 12 6 5 10 10 9 8 15 15 16 17 16 17 16
16 19 20 17 14 8 5 7 6 5 6 5 7 7 6 16 18 14 9 10 18 19 20 16 16 17 17 16 15 11 6 5 12 11 9 9 14 15 16 16 17 16 17
16 16 16 17 15 14 12 4 8 9 7 5 6 13 12 11 13 11 8 10 16 19 19 16 15 17 17 15 14 11 11 5 8 6 7 12 15 16 16 16 14 17 16
19 18 16 17 17 14 9 10 8 7 8 8 9 11 11 11 9 12 11 11 12 19 19 16 16 17 16 12 10 11 7 6 5 6 9 11 15 16 17 16 15 14 16
15 12 15 16 13 14 12 8 5 4 5 5 9 9 11 10 8 7 4 4 7 18 13 14 14 13 13 11 11 9 7 7 5 6 12 10 14 17 17 16 16 15 14
17 18 18 16 14 14 9 8 8 5 5 5 7 11 10 7 9 7 7 6 8 10 14 14 11 11 9 11 12 8 8 5 5 6 10 10 12 16 16 16 16 15 14
20 19 19 18 15 13 12 8 9 7 5 7 5 9 9 10 9 8 9 7 11 11 13 13 11 10 8 10 9 10 8 6 7 6 8 10 10 14 15 18 15 15 14
20 20 19 18 17 17 12 12 9 8 7 5 7 7 12 10 9 10 7 8 6 8 10 13 9 8 9 10 11 9 9 8 7 8 9 10 10 10 13 16 16 15 15
18 20 19 18 17 17 16 14 10 8 5 6 6 11 11 11 11 11 7 8 6 6 9 11 12 8 9 8 9 9 8 8 8 8 10 10 10 9 10 12 13 14 15
18 19 19 17 18 18 15 13 10 8 6 5 5 6 11 10 13 11 9 8 8 8 7 6 8 8 9 8 9 8 8 8 9 9 8 9 10 10 8 9 11 11 13
18 18 19 19 19 20 16 13 13 12 8 5 6 6 9 10 12 11 7 10 11 9 8 8 7 9 10 9 10 7 8 8 9 8 9 9 10 10 9 10 10 11 12
18 18 18 17 19 19 13 13 12 9 9 6 7 7 9 8 9 11 9 9 11 12 10 9 9 7 8 6 8 5 6 7 7 7 9 8 9 9 9 13 11 10 11
18 18 19 19 19 15 13 14 11 11 11 8 7 9 10 9 11 10 8 13 12 10 12 13 8 12 7 7 6 4 2 4 8 8 8 8 10 10 10 11 9 8 9
20 19 19 18 18 15 12 11 9 11 9 11 8 8 10 12 12 11 9 11 13 12 13 14 13 7 6 11 7 6 4 2 6 7 8 8 10 9 10 11 10 10 10
20 20 19 19 18 16 18 12 11 10 8 7 8 8 11 13 11 13 12 12 14 13 12 14 9 16 9 11 12 6 6 4 9 8 9 9 10 9 9 11 12 12 11
20 18 19 19 17 16 18 15 16 9 11 10 9 10 14 13 11 12 13 12 13 10 15 15 15 7 11 14 9 2 5 9 9 5 8 10 10 11 12 10 12 12 12
19 18 18 19 18 17 17 16 12 13 9 10 10 14 16 10 13 13 15 14 15 13 13 15 16 17 9 12 10 8 4 7 8 8 8 9 8 11 11 11 11 11 13
19 18 18 20 19 18 16 17 16 15 15 11 12 10 10 11 7 11 13 11 11 11 13 12 15 17 12 13 12 10 8 6 4 6 5 11 11 12 12 11 11 11 11
Wind_Direction
151 125 131 133 135 138 139 136 134 134 137 133 132 130 131 128 133 137 134 136 135 122 116 128 130 131 126 123 114 111 115 115 115 109 106 105 102 102 104 111 108 96 93
130 129 120 126 129 140 146 146 137 137 141 137 137 136 135 133 138 141 142 141 139 141 148 139 134 128 128 118 113 122 117 112 112 111 107 104 101 98 90 80 89 94 93
130 127 149 116 122 133 140 151 146 143 145 141 143 144 141 141 148 147 147 142 141 140 136 135 133 129 124 119 126 120 112 112 119 130 134 109 103 103 99 96 97 96 96
130 138 150 121 120 124 137 142 151 148 149 149 150 153 145 147 150 150 139 147 142 138 137 135 131 130 129 125 120 115 113 119 139 160 118 117 110 110 105 103 102 100 98
141 141 115 130 128 125 128 143 154 154 153 157 158 158 154 159 159 156 148 147 140 139 138 133 134 133 126 124 120 117 117 132 171 188 119 116 109 113 110 109 111 101 90
90 126 91 91 104 113 123 137 159 161 158 160 165 163 167 166 162 157 151 146 142 143 138 136 135 129 128 125 124 121 123 152 195 118 100 109 114 108 103 97 100 102 106
51 50 111 48 66 84 113 139 151 163 166 170 169 170 172 169 163 160 152 149 145 142 137 136 135 134 130 124 123 122 131 183 136 110 117 120 111 113 109 104 106 112 111
16 18 87 105 72 64 74 153 167 179 176 184 178 180 176 169 156 132 165 155 145 135 132 134 137 131 128 124 120 114 134 201 138 111 114 106 110 112 111 115 115 120 117
10 2 8 3 108 146 166 158 221 223 218 201 192 184 178 165 137 146 166 154 146 132 131 137 138 130 125 121 113 118 142 263 122 110 122 118 114 122 124 123 123 124 122
23 4 358 355 349 326 213 176 196 210 244 220 225 191 166 155 147 150 161 167 159 136 133 143 139 129 122 115 115 122 139 229 116 138 138 116 133 129 129 131 131 127 125
9 4 358 351 350 342 325 294 205 213 218 226 171 151 156 157 152 136 168 193 169 140 138 142 136 126 119 118 124 139 183 146 139 132 111 137 136 138 130 128 130 130 122
2 359 353 346 346 341 324 307 286 272 226 210 206 180 171 154 151 151 176 201 180 148 138 138 134 132 155 151 148 169 208 132 146 127 111 150 144 137 132 131 134 127 129
0 356 349 346 343 346 340 317 288 266 270 232 217 183 166 149 152 163 190 188 187 156 154 151 151 169 168 164 161 190 130 179 133 123 122 144 144 138 139 139 141 134 131
4 359 353 350 348 346 332 324 294 269 262 250 222 186 172 158 162 171 184 192 187 179 165 171 175 174 168 169 174 151 167 157 142 118 134 144 149 145 146 145 140 138 131
359 2 358 347 348 343 334 323 305 270 258 260 239 197 187 168 164 166 194 204 190 187 174 176 174 171 174 167 168 164 160 144 142 132 142 146 150 149 155 142 147 144 142
353 357 354 350 349 342 335 322 315 277 256 251 242 212 200 175 166 172 178 188 179 198 182 172 169 166 175 170 168 166 162 154 162 144 135 154 150 152 157 148 156 151 148
351 351 352 351 349 346 335 330 314 302 242 235 237 232 202 176 168 182 164 169 171 155 176 171 170 157 167 172 172 169 163 158 150 152 156 150 154 155 157 155 153 158 157
351 351 348 352 350 348 341 327 316 310 247 227 217 230 209 177 170 176 182 177 171 156 159 160 158 155 170 183 167 175 171 168 157 159 160 162 166 161 154 154 157 156 160
356 352 348 352 354 347 340 333 317 319 263 220 215 200 203 182 179 173 186 166 168 176 177 157 162 172 178 180 169 186 175 169 167 170 159 171 167 164 172 156 161 167 170
358 355 351 352 355 348 344 343 329 323 354 297 212 204 207 180 187 182 172 166 174 180 180 172 168 172 167 165 180 173 186 171 170 169 168 176 165 173 176 169 174 173 176
1 357 356 354 354 350 351 348 342 329 324 304 257 203 200 194 188 195 187 179 174 192 191 182 169 171 160 156 146 105 99 189 186 185 175 179 170 180 180 178 187 177 181
0 0 355 358 354 350 352 343 330 314 304 297 282 218 210 216 203 193 177 182 182 184 194 194 194 172 175 170 161 131 145 178 231 210 188 188 180 184 184 192 193 200 189
1 2 355 356 356 352 349 348 339 330 331 319 352 299 220 216 205 199 200 181 183 186 194 193 191 181 178 182 175 143 152 181 168 192 214 196 184 199 192 192 198 204 211
0 359 358 356 357 354 351 349 349 338 330 326 312 304 303 213 200 201 208 196 187 184 196 196 200 189 183 180 179 170 205 140 196 162 213 211 204 208 200 196 197 207 209
359 360 358 358 358 357 354 350 347 340 326 319 322 322 323 228 206 200 197 201 187 198 199 196 198 210 201 187 183 176 160 183 223 187 176 192 212 214 209 212 204 205 207
358 358 357 358 1 356 353 351 346 340 333 334 333 325 331 316 205 206 202 191 191 195 194 197 199 200 203 199 186 182 172 162 181 203 193 178 201 208 213 208 210 213 208